TALLINN current weather conditions

sailwx.info

Wind from 110 at 16 knots

Air temperature 24.0° C
Dewpoint 17.0° C

Last reported at 2014-Jul-13 11:20 UTC.
Time now 2014-Jul-13 12:51 UTC

Location: N 59°24' E 024°49'.
View on Google Maps.

See reports from other nearby stations

  
Tides Stations Pressure Air Temp Water Temp Dewpoint Dewpoint depression Visibility Wind Speed Wind Dir Waves Ship positions
date/time (UTC)wind fromknots sea level pressurealtimeterstation pressurevisibilityair tempwater tempwave heightnotes
2014-Jul-13 11:20 110 16 24.0
2014-Jul-13 10:50 110 18 23.0
2014-Jul-13 10:20 100 14 23.0
2014-Jul-13 09:50 100 13 24.0
2014-Jul-13 09:20 060 8 23.0
2014-Jul-13 08:50 100 11 24.0
2014-Jul-13 08:20 080 13 24.0
2014-Jul-13 07:50 100 10 25.0
2014-Jul-13 07:20 100 11 24.0
2014-Jul-13 06:50 110 10 23.0
2014-Jul-13 06:20 120 11 23.0
2014-Jul-13 05:50 120 10 22.0
2014-Jul-13 05:20 120 9 22.0
2014-Jul-13 04:50 120 9 21.0
2014-Jul-13 04:20 120 9 20.0
2014-Jul-13 03:50 110 9 19.0
2014-Jul-13 03:20 110 8 19.0
2014-Jul-13 02:50 090 6 18.0
2014-Jul-13 02:20 090 7 17.0
2014-Jul-13 01:50 090 7 17.0
2014-Jul-13 01:20 090 7 16.0
2014-Jul-13 00:50 090 7 16.0
2014-Jul-13 00:20 100 7 15.0
2014-Jul-12 23:50 090 8 16.0
2014-Jul-12 23:20 060 7 17.0
2014-Jul-12 22:50 080 7 17.0
2014-Jul-12 22:20 070 6 18.0
2014-Jul-12 21:50 070 6 18.0
2014-Jul-12 21:20 080 7 19.0
2014-Jul-12 20:50 090 8 19.0
2014-Jul-12 20:20 100 7 18.0
2014-Jul-12 19:50 070 5 18.0
2014-Jul-12 19:20 050 6 18.0
2014-Jul-12 18:50 100 5 17.0
2014-Jul-12 18:20 090 6 5.417.0
2014-Jul-12 17:50 060 5 5.419.0
2014-Jul-12 17:20 050 6 5.419.0
2014-Jul-12 16:50 040 8 5.419.0
2014-Jul-12 16:20 060 8 5.421.0
2014-Jul-12 15:50 080 10 5.422.0
2014-Jul-12 15:20 060 11 5.421.0
2014-Jul-12 14:50 060 12 5.420.0
2014-Jul-12 14:20 060 11 5.420.0
2014-Jul-12 13:50 060 12 5.420.0
2014-Jul-12 13:20 060 14 5.420.0
2014-Jul-12 12:50 060 14 5.420.0
2014-Jul-12 12:20 060 15 5.421.0
2014-Jul-12 11:50 060 13 20.0
2014-Jul-12 11:20 060 14 20.0
2014-Jul-12 10:50 060 12 19.0
2014-Jul-12 10:20 060 12 18.0
2014-Jul-12 09:50 070 14 18.0
2014-Jul-12 09:20 060 14 18.0
2014-Jul-12 08:50 060 11 18.0
2014-Jul-12 08:20 050 11 18.0
2014-Jul-12 07:50 070 11 18.0
2014-Jul-12 07:20 070 11 18.0
2014-Jul-12 06:50 080 11 18.0
2014-Jul-12 06:20 090 11 5.418.0
2014-Jul-12 05:50 090 12 5.418.0
2014-Jul-12 05:20 100 9 5.417.0
2014-Jul-12 04:50 090 9 16.0
2014-Jul-12 04:20 090 7 14.0
2014-Jul-12 03:50 090 6 13.0
2014-Jul-12 03:20 090 7 11.0
2014-Jul-12 02:50 090 6 10.0
2014-Jul-12 02:20 090 6 10.0
2014-Jul-12 01:50 080 5 10.0
2014-Jul-12 01:20 080 5 5.410.0 Shallow fog.
2014-Jul-12 00:50 080 5 5.410.0 Shallow fog.
2014-Jul-12 00:20 080 5 10.0
2014-Jul-11 23:50 090 6 11.0
2014-Jul-11 23:20 080 5 11.0
2014-Jul-11 22:50 090 5 11.0
2014-Jul-11 22:20 080 5 12.0
2014-Jul-11 21:50 080 5 12.0
2014-Jul-11 21:20 070 5 13.0
2014-Jul-11 20:50 070 6 13.0
2014-Jul-11 20:20 070 5 14.0
2014-Jul-11 19:50 090 6 13.0
2014-Jul-11 19:20 070 7 15.0
2014-Jul-11 18:50 070 8 16.0
2014-Jul-11 18:20 070 8 16.0
2014-Jul-11 17:50 060 8 16.0
2014-Jul-11 17:20 060 9 17.0
2014-Jul-11 16:50 050 11 17.0
2014-Jul-11 16:20 060 11 17.0
2014-Jul-11 15:50 060 14 18.0
2014-Jul-11 15:20 050 13 18.0
2014-Jul-11 14:50 060 14 18.0
2014-Jul-11 14:20 060 14 18.0
2014-Jul-11 13:50 060 15 18.0
2014-Jul-11 13:20 060 16 gusting 29 18.0
2014-Jul-11 12:50 060 15 17.0
2014-Jul-11 12:20 060 17 17.0